Weather History for Naples, FL

Change the Weather History Date:

Monday, November 26, 2012

  Actual Average Record
Temperature  
Mean Temperature 65 °F 70 °F  
Max Temperature 79 °F 79 °F 90 °F (1948)
Min Temperature 50 °F 61 °F 14 °F (2012)
Degree Days  
Heating Degree Days 0 1  
Month to date heating degree days 12 7  
Since 1 July heating degree days 13 8  
Cooling Degree Days 0 6  
Month to date cooling degree days 101 202  
Year to date cooling degree days 3942 3797  
Growing Degree Days 14 (Base 50)    
Moisture  
Dew Point 59 °F    
Average Humidity 74    
Maximum Humidity 96    
Minimum Humidity 52    
Precipitation  
Precipitation 0.00 in 0.06 in 0.72 in (1987)
Month to date precipitation 0.12 1.80  
Year to date precipitation 36.15 50.20  
Snow  
Snow 0.00 in - - ()
Month to date snowfall 0.0  
Since 1 July snowfall 0.0  
Since 1 September snowfall 0.0  
Snow Depth 0.00 in    
Sea Level Pressure  
Sea Level Pressure 30.15 in    
Wind  
Wind Speed 4 mph (ENE)    
Max Wind Speed 14 mph    
Max Gust Speed 17 mph    
Visibility 9 miles    
Events      
T = Trace of Precipitation, MM = Missing Value Source: NWS Daily Summary

Daily Weather History Graph

Daily Weather History Graph

Search for Another Location

Airport:

Trip Planner

Search our weather history database for the weather conditions in past years. The results will help you decide how hot, cold, wet, or windy it might be!

Date:

Astronomy

Nov. 26, 2012 Rise Set
Actual Time 6:54 AM EST 5:34 PM EST
Civil Twilight 6:29 AM EST 5:59 PM EST
Nautical Twilight 6:00 AM EST 6:28 PM EST
Astronomical Twilight 5:33 AM EST 6:55 PM EST
Moon 4:21 PM EST (11/26) 5:09 AM EST (11/26)
Length of Visible Light 11h 30m
Length of Day
10h 40m
Waxing Gibbous, 97% of the Moon is Illuminated
Nov 26
Waxing Gibbous
Nov 28
Full
Dec 6
Last Quarter
Dec 13
New
Dec 20
First Quarter

Hourly Weather History & Observations

Time (EST) Temp. Dew Point Humidity Pressure Visibility Wind Dir Wind Speed Gust Speed Precip Events Conditions
12:53 AM 54.0 °F - N/A% 30.13 in 10.0 mi Calm Calm - N/A   Clear
1:53 AM 53.1 °F - N/A% 30.12 in 10.0 mi Calm Calm - N/A   Clear
2:53 AM 52.0 °F - N/A% 30.12 in 10.0 mi ENE 3.5 mph - N/A   Clear
3:53 AM 50.0 °F - N/A% 30.12 in 10.0 mi ENE 3.5 mph - N/A   Clear
4:37 AM 51.8 °F - N/A% 30.13 in 10.0 mi NE 3.5 mph - N/A   Partly Cloudy
4:53 AM 51.1 °F - N/A% 30.13 in 10.0 mi NE 3.5 mph - N/A   Partly Cloudy
5:20 AM 51.8 °F - N/A% 30.13 in 8.0 mi NE 4.6 mph - N/A   Mostly Cloudy
5:39 AM 51.8 °F - N/A% 30.14 in 5.0 mi NE 4.6 mph - N/A   Haze
5:53 AM 52.0 °F - N/A% 30.14 in 6.0 mi ENE 4.6 mph - N/A   Haze
6:53 AM 52.0 °F 50.4 °F 94% 30.15 in 5.0 mi ENE 3.5 mph - N/A   Clear
7:53 AM 55.0 °F 52.3 °F 91% 30.16 in 5.0 mi ENE 4.6 mph - N/A   Clear
8:53 AM 62.1 °F 54.0 °F 75% 30.18 in 8.0 mi ENE 3.5 mph - N/A   Clear
9:53 AM 70.0 °F 55.6 °F 60% 30.19 in 10.0 mi ENE 4.6 mph - N/A   Clear
10:53 AM 73.9 °F 57.0 °F 55% 30.19 in 10.0 mi East 6.9 mph - N/A   Clear
11:53 AM 77.0 °F 60.1 °F 56% 30.17 in 10.0 mi ESE 9.2 mph - N/A   Clear
12:53 PM 78.1 °F 59.0 °F 52% 30.15 in 10.0 mi South 6.9 mph - N/A   Clear
1:53 PM 75.9 °F 62.1 °F 62% 30.13 in 10.0 mi West 8.1 mph - N/A   Clear
2:53 PM 77.0 °F 61.0 °F 58% 30.11 in 10.0 mi SW 9.2 mph - N/A   Clear
3:53 PM 77.0 °F 60.1 °F 56% 30.11 in 10.0 mi SW 8.1 mph - N/A   Mostly Cloudy
4:53 PM 75.0 °F 61.0 °F 62% 30.12 in 10.0 mi West 5.8 mph - N/A   Clear
5:53 PM 71.1 °F 63.0 °F 75% 30.13 in 10.0 mi Calm Calm - N/A   Clear
6:53 PM 68.0 °F 62.1 °F 81% 30.14 in 10.0 mi Calm Calm - N/A   Clear
7:53 PM 66.9 °F 63.0 °F 87% 30.16 in 9.0 mi Calm Calm - N/A   Scattered Clouds
8:53 PM 66.0 °F 62.1 °F 87% 30.17 in 8.0 mi Calm Calm - N/A   Clear
9:53 PM 66.0 °F 62.1 °F 87% 30.19 in 8.0 mi Calm Calm - N/A   Clear
10:53 PM 64.9 °F 62.1 °F 90% 30.18 in 9.0 mi Calm Calm - N/A   Clear
11:53 PM 63.0 °F 61.0 °F 93% 30.17 in 9.0 mi Calm Calm - N/A   Clear